BEIDOU IGSO 5

Last updated on Tue Apr 02 2019 03:15:24 GMT+0000 (Coordinated Universal Time)

1 37948U 11073A 19091.88952427 -.00000122 00000-0 10000-3 0 9998 2 37948 52.2750 303.1124 0056204 207.6624 95.2320 1.00270977 26992

Satellite not in orbit

BEIDOU IGSO 5